TIME,DELAY(SENSOR),PRES,T(CTD),SAL,OXYGEN,RAWTEMP,T(OPTODE),TCPHASE,TURBIDITY,TURBIDITY_GAIN,FLUOR,BETA,CDOM,ED411.5,ED443.8,ED489.6,PAR,COMP,TILT,TILTY(TILT),CHECK
1341501114,6467,259.2399902343750000,4.9391999244689940,34.9804000854492200,343.3197937011719000,760.6486206054688000,4.9135718345642090,34.3154182434082000,16,3,50,116,64,2147247007,2147560420,2147570010,2147361599,1131,0,-12,52883
1341501175,6468,255.8899993896484400,4.9586000442504880,34.9822998046875000,343.3883972167969000,760.1638793945312000,4.9305357933044430,34.3030509948730500,16,3,50,107,64,2147244530,2147561440,2147572342,2147361627,624,0,-12,27102
1341501236,6468,252.4799957275390600,4.9612002372741700,34.9810981750488300,343.2381896972656000,760.0247802734375000,4.9354000091552730,34.3055686950683600,16,3,50,110,64,2147241869,2147560488,2147570006,2147362125,3319,0,-12,4212
1341501297,6467,249.1100006103515600,4.9780998229980470,34.9822998046875000,342.8247985839844000,759.6038818359375000,4.9501290321350100,34.3117294311523440,16,3,49,110,64,2147244364,2147560625,2147572972,2147359446,2563,0,-10,8875
1341501358,6466,245.6499938964843800,4.9808001518249510,34.9824981689453100,342.6453857421875000,759.5172119140625000,4.9531631469726560,34.3158798217773440,16,3,50,108,64,2147243999,2147560946,2147568731,2147359158,1929,0,-12,26103
1341501419,6467,242.1300048828125000,4.9738001823425290,34.9796981811523440,341.8615112304687500,759.6060180664062000,4.9500541687011720,34.3451194763183600,16,3,49,109,65,2147241709,2147560370,2147567835,2147360428,1514,0,-12,8881
1341501480,6468,238.6000061035156200,4.9921998977661130,34.9809989929199200,340.6315917968750000,759.1796264648438000,4.9649682044982910,34.3789901733398440,16,3,50,111,65,2147240831,2147559305,2147572200,2147359689,1072,0,-12,32865
1341501541,6466,235.0599975585937500,4.9839000701904300,34.9782981872558600,339.3617858886719000,759.5219116210938000,4.9529991149902340,34.4304008483886700,10,3,50,112,65,2147242527,2147559711,2147571885,2147362678,351,0,-12,7669
1341501602,6466,231.5299987792968800,4.9770998954772950,34.9758987426757800,336.6265869140625000,759.5797119140625000,4.9509739875793460,34.5277595520019500,16,3,48,111,66,2147244420,2147556410,2147571862,2147361691,3061,0,-12,38436
1341501663,6467,228.0299987792968800,4.9812002182006840,34.9762992858886700,334.9870910644531000,759.4799194335938000,4.9544677734375000,34.5832786560058600,16,3,49,122,65,2147242345,2147559181,2147572223,2147361151,2458,0,-12,43943
1341501726,6467,224.4400024414062500,4.9889998435974120,34.9763984680175800,334.2814941406250000,759.2689208984375000,4.9618492126464840,34.6046295166015600,16,3,49,106,66,2147244950,2147560246,2147576561,2147359532,2002,0,-12,35078
1341501787,6465,221.0000000000000000,4.9937000274658200,34.9771003723144500,333.7857971191406000,759.1660766601562000,4.9654388427734375,34.6199913024902340,16,3,50,113,66,2147246417,2147558939,2147573457,2147361544,1626,0,-12,64213
1341501850,6468,217.4799957275390600,5.0110998153686520,34.9782981872558600,334.1470947265625000,758.6578979492188000,4.9832148551940920,34.5972213745117200,16,3,48,111,66,2147245339,2147557375,2147571171,2147363931,1188,0,-12,34801
1341501911,6468,214.1600036621093800,5.0304999351501465,34.9786987304687500,333.6961975097656000,758.1729736328125000,5.0001721382141110,34.6034317016601560,16,3,50,110,66,2147243199,2147560776,2147572571,2147358848,600,0,-12,48378
1341501974,6468,210.8099975585937500,5.0451002120971680,34.9795989990234400,332.8880004882812500,757.7385864257812000,5.0153560638427730,34.6237716674804700,16,3,50,111,66,2147241161,2147559876,2147572744,2147362180,3550,0,-12,57516
1341502035,6468,207.6399993896484400,5.0508999824523930,34.9802017211914060,332.8051147460937500,757.4943237304688000,5.0238947868347170,34.6218109130859400,10,3,50,108,66,2147244978,2147559497,2147572465,2147362435,2820,0,-12,8145
1341502098,6468,204.3800048828125000,5.0623002052307130,34.9808998107910160,332.5408020019531000,757.1732177734375000,5.0351200103759770,34.6248397827148440,16,3,48,109,66,2147241695,2147558536,2147576392,2147360726,2406,0,-12,46132
1341502159,6466,201.3200073242187500,5.0925998687744140,34.9831008911132800,333.0849914550781000,756.4481811523438000,5.0604500770568850,34.5909805297851560,16,3,50,111,64,2147245188,2147559684,2147577334,2147360064,1987,0,-12,17385
1341502222,6468,198.2200012207031200,5.1016998291015625,34.9841995239257800,335.0690002441406000,756.1096191406250000,5.0722789764404300,34.5138511657714840,16,3,50,110,66,2147243190,2147559670,2147577165,2147359898,1549,0,-12,19008
1341502283,6468,195.3300018310547000,5.1396999359130860,34.9882011413574200,336.7225036621094000,755.1094970703125000,5.1072039604187010,34.4352493286132800,16,3,49,108,66,2147242728,2147558669,2147575263,2147360140,1153,0,-12,40381
1341502346,6468,192.4100036621093800,5.1378998756408690,34.9872016906738300,338.1701965332031000,755.0408935546875000,5.1096019744873050,34.3831291198730500,12,3,49,111,64,2147241009,2147559670,2147579186,2147361137,684,0,-12,45525
1341502407,6466,189.6399993896484400,5.1387000083923340,34.9864997863769500,337.4789123535156000,754.9954833984375000,5.1111850738525390,34.4065589904785160,41,3,49,113,66,2147242550,2147559286,2147576265,2147360955,3521,0,-12,20718
1341502470,6468,186.8300018310547000,5.1357002258300780,34.9860992431640600,336.6187133789062500,755.0258178710938000,5.1101260185241700,34.4374389648437500,16,3,50,110,65,2147242386,2147558595,2147582559,2147364031,2825,0,-12,63819
1341502531,6468,184.1999969482422000,5.1413998603820800,34.9852981567382800,334.7503051757812500,754.9055786132812000,5.1143231391906740,34.5013198852539060,16,3,50,111,65,2147241979,2147560946,2147581878,2147360996,2464,0,-12,18398
1341502594,6466,181.5599975585937500,5.1508998870849610,34.9855003356933600,333.6484069824219000,754.6090087890625000,5.1246781349182130,34.5344810485839840,16,3,50,111,65,2147244297,2147560429,2147581691,2147362239,2188,0,-12,45311
1341502655,6466,179.1100006103515600,5.1588001251220700,34.9847984313964840,332.9740905761719000,754.4187011718750000,5.1313228607177730,34.5546989440918000,16,3,49,111,66,2147244200,2147559935,2147582047,2147361554,1892,0,-12,49741
1341502718,6466,176.6000061035156200,5.1641001701354980,34.9851989746093750,332.2356872558594000,754.2609863281250000,5.1368269920349120,34.5780105590820300,16,3,48,113,66,2147244146,2147558116,2147581663,2147360908,1563,0,-12,63374
1341502779,6467,174.2599945068359400,5.1677999496459960,34.9850997924804700,331.7327880859375000,754.1594848632812000,5.1403679847717285,34.5939102172851560,16,3,48,119,66,2147240639,2147560063,2147584891,2147361270,1201,0,-12,4506
1341502870,6469,170.1499938964843800,5.2012000083923340,34.9859008789062500,333.3086853027344000,753.2604980468750000,5.1717400550842285,34.5198898315429700,16,3,50,116,65,2147243999,2147559583,2147586961,2147360054,243,0,-12,14358
1341502931,6466,166.6499938964843800,5.2132000923156740,34.9869003295898440,335.2540893554687500,752.8217163085938000,5.1870498657226560,34.4419593811035160,16,3,50,115,64,2147244680,2147557215,2147588045,2147361718,2767,0,-12,39279
1341502994,6467,163.0599975585937500,5.2276000976562500,34.9882011413574200,336.7925109863281000,752.4531250000000000,5.1999030113220215,34.3806800842285160,16,3,49,120,64,2147242980,2147563775,2147588383,2147357654,2198,0,-12,5859
1341503055,6504,159.6399993896484400,5.2258000373840330,34.9869995117187500,337.4587097167969000,752.4340209960938000,5.2005729675292970,34.3568496704101560,16,3,49,125,64,2147245001,2147562020,2147591273,2147363962,1788,0,-12,61068
1341503118,6466,156.2100067138672000,5.2354998588562010,34.9864997863769500,337.3962097167969000,752.1621093750000000,5.2100510597229000,34.3535003662109400,16,3,50,130,66,2147239222,2147563455,2147592361,2147361252,1370,0,-12,11366
1341503179,6467,152.9400024414062500,5.3112998008728030,34.9934005737304700,336.3681945800781000,749.8021850585938000,5.2923069000244140,34.3432807922363300,14,3,50,122,65,2147244722,2147560191,2147595318,2147364886,957,0,-12,12734
1341503242,6469,149.6499938964843800,5.3625998497009280,34.9998016357421900,337.3082885742187500,748.6704711914062000,5.3317217826843260,34.2883605957031250,16,3,48,120,66,2147242971,2147561878,2147594591,2147365448,466,0,-12,58027
1341503303,6466,146.4799957275390600,5.3508000373840330,34.9986991882324200,337.5223083496094000,748.9401855468750000,5.3223290443420410,34.2858810424804700,16,3,50,125,65,2147240616,2147564081,2147592589,2147362345,3237,0,-12,59270
1341503366,6468,143.2500000000000000,5.3723001480102540,34.9991989135742200,336.2477111816406000,748.2236938476562000,5.3472790718078610,34.3169097900390600,15,3,50,130,64,2147244584,2147563697,2147595048,2147363492,2750,0,-12,21304
1341503427,6466,140.1900024414062500,5.4113998413085940,35.0031013488769500,337.0698852539062500,746.9393920898438000,5.3919792175292970,34.2630882263183600,16,3,50,125,64,2147240799,2147564442,2147595665,2147364566,2308,0,-12,37947
1341503490,6503,137.0800018310547000,5.4963002204895020,35.0124015808105500,339.4790039062500000,744.8458862304688000,5.4647898674011230,34.1380805969238300,16,3,50,130,64,2147238568,2147561531,2147599679,2147363437,1752,0,-12,10104
1341503551,6465,134.0700073242187500,5.5187997817993160,35.0125007629394500,339.9014892578125000,744.0391235351562000,5.4928321838378910,34.1078109741210940,14,3,50,132,64,2147238806,2147560141,2147600726,2147367021,1417,0,-12,3963
1341503614,6467,130.8500061035156200,5.5507998466491700,35.0122985839843750,339.5065002441406000,743.1859741210938000,5.5224738121032715,34.1047096252441400,16,3,50,137,64,2147240932,2147562825,2147600648,2147363263,1077,0,-12,54801
1341503675,6467,127.6500015258789000,5.5658001899719240,35.0143013000488300,339.1455993652344000,742.6762084960938000,5.5401840209960940,34.1075401306152340,16,3,51,141,64,2147239803,2147561014,2147605142,2147363039,245,0,-12,31301
1341503738,6468,124.1399993896484400,5.5121002197265625,35.0054016113281250,339.3414916992187500,744.6032714843750000,5.4732208251953125,34.1379890441894500,16,3,50,131,64,2147242445,2147564031,2147607213,2147365874,3116,0,-12,50044
1341503799,6503,120.6100006103515600,5.4658999443054200,34.9924011230468750,338.7058105468750000,745.4066772460938000,5.4452919960021970,34.1755790710449200,16,3,51,138,65,2147241156,2147564076,2147611834,2147366207,2701,0,-12,5982
1341503862,6465,116.7600021362304700,5.6096000671386720,35.0004005432128900,338.7430114746094000,741.2587890625000000,5.5893988609313965,34.0941314697265600,16,3,52,132,64,2147242125,2147565338,2147618244,2147365778,2372,0,-12,60812
1341503923,6468,112.9000015258789000,5.6890001296997070,35.0127983093261700,337.3635864257812500,739.3909912109375000,5.6542110443115230,34.1060600280761700,34,3,52,131,64,2147240506,2147564753,2147628923,2147369481,1908,0,-12,6253
1341504011,6467,107.7399978637695300,5.7291002273559570,35.0158996582031250,336.8843994140625000,738.1398925781250000,5.6975941658020020,34.0988197326660160,16,3,51,129,64,2147242175,2147568630,2147643021,2147372242,1611,0,-12,31310
1341504072,6467,104.8899993896484400,5.7196002006530760,35.0127983093261700,336.8832092285156000,738.4365844726562000,5.6873068809509280,34.1044616699218750,16,3,51,133,64,2147241800,2147571894,2147656498,2147371556,1467,0,-12,56451
1341504135,6468,102.0199966430664000,5.6930999755859375,35.0046997070312500,338.0028991699219000,738.8862915039062000,5.6717147827148440,34.0741882324218750,14,3,52,139,64,2147242134,2147572758,2147671688,2147375615,1329,0,-12,11335
1341504196,6468,99.2799987792968800,5.7132000923156740,35.0046005249023440,338.9107055664062500,738.4849853515625000,5.6856269836425780,34.0347290039062500,16,3,54,142,66,2147242335,2147573567,2147688790,2147382509,1055,0,-12,62194
1341504259,6467,96.5000000000000000,5.7446999549865720,35.0065002441406250,339.6929016113281000,737.5996093750000000,5.7163219451904300,33.9903488159179700,17,3,54,132,64,2147242829,2147578006,2147703716,2147384123,1050,0,-12,33676
1341504320,6468,93.9400024414062500,5.7586998939514160,35.0066986083984400,340.0968017578125000,737.1998901367188000,5.7301769256591800,33.9688415527343750,16,3,54,136,66,2147244580,2147582842,2147723044,2147387126,842,0,-12,28750
1341504383,6469,91.3199996948242200,5.7533998489379880,35.0055007934570300,340.1781005859375000,737.2211303710938000,5.7294430732727050,33.9666404724121100,16,3,55,143,65,2147245087,2147584603,2147740635,2147392589,239,0,-12,20474
1341504444,6468,88.8199996948242200,5.7554998397827150,35.0046997070312500,339.9689941406250000,737.2208862304688000,5.7294478416442870,33.9736900329589840,16,3,55,230,64,2147244237,2147586975,2147761882,2147394568,3278,0,-11,11609
1341504507,6466,86.3799972534179700,5.7964000701904300,35.0078010559082000,340.0437927246094000,736.1857299804688000,5.7653160095214840,33.9511299133300800,17,3,54,142,64,2147247524,2147590111,2147779459,2147399826,3170,0,-12,9113
1341504568,6469,84.1299972534179700,5.8447999954223630,35.0121002197265600,340.8005981445312500,734.8554077148438000,5.8113799095153810,33.8998298645019500,17,3,56,154,64,2147248086,2147597974,2147806335,2147403725,3016,0,-12,46705
1341504655,6467,80.4700012207031200,5.8941998481750490,35.0130996704101560,343.8223876953125000,733.4072875976562000,5.8614978790283200,33.7681884765625000,25,3,56,153,64,2147253005,2147608004,2147845530,2147415931,2555,0,-12,48384
1341504716,6468,77.1299972534179700,5.7246999740600590,34.9841995239257800,347.4526062011719000,737.3720092773438000,5.7242131233215330,33.7205009460449200,16,3,66,149,64,2147255391,2147613032,2147882028,2147423684,2207,0,-12,42599
1341504779,6466,73.7699966430664000,5.6125001907348630,34.9523010253906250,353.3663024902344000,740.7584228515625000,5.6067700386047360,33.5875511169433600,16,3,82,146,64,2147258934,2147629613,2147934459,2147437393,2105,0,-12,52092
1341504840,6503,70.7500000000000000,5.8713002204895020,34.9747009277343750,353.9544982910156000,735.0017700195312000,5.8063130378723145,33.4584197998046900,15,3,74,151,64,2147262833,2147640013,2147990957,2147451309,1826,0,-12,60310
1341504903,6468,67.7799987792968800,5.9527001380920410,34.9808998107910160,354.3758850097656000,731.6920776367188000,5.9208202362060550,33.3815803527832000,15,3,81,281,65,2147273366,2147656835,2148057896,2147470051,1630,0,-12,32272
1341504964,6468,65.0400009155273400,5.9590997695922850,34.9828987121582000,355.3825988769531000,731.5247192382812000,5.9266128540039060,33.3453598022460940,22,3,84,158,64,2147277398,2147678650,2148135455,2147488507,1242,0,-12,55786
1341505027,6467,62.2999992370605500,5.9969000816345215,34.9822998046875000,355.9573974609375000,730.4500732421875000,5.9637551307678220,33.3062515258789060,17,3,88,173,64,2147287487,2147697713,2148206779,2147515104,849,0,-12,64499
1341505088,6470,59.7500000000000000,5.7291002273559570,34.9385986328125000,359.9892883300781000,736.4708862304688000,5.7554340362548830,33.2887382507324200,17,3,111,174,64,2147298294,2147719158,2148291126,2147543899,493,0,-12,832
1341505151,6470,57.3100013732910160,5.8991999626159670,34.9487991333007800,360.9013977050781000,733.7886962890625000,5.8483009338378910,33.2086181640625000,19,3,110,182,65,2147315377,2147746688,2148395405,2147578449,3249,0,-12,13651
1341505212,6468,55.0699996948242200,5.8585000038146970,34.9331016540527340,363.2591857910156000,734.3035278320312000,5.8304882049560550,33.1425285339355500,24,3,134,204,65,2147333187,2147780059,2148511200,2147615140,2938,0,-12,30727
1341505303,6470,51.2500000000000000,6.0626997947692870,34.9224014282226560,364.3330993652344000,728.6635131835938000,6.0254731178283690,33.0021705627441400,36,3,178,250,66,2147385750,2147861923,2148777037,2147718499,2539,0,-12,35848
1341505364,6471,47.9199981689453100,6.3824000358581540,34.9239006042480500,364.0488891601562500,720.3607788085938000,6.3116931915283200,32.8570709228515600,31,3,259,335,66,2147466394,2147974207,2149134075,2147853535,2263,0,-12,64904
1341505427,6468,44.4700012207031250,6.6483001708984375,34.9085006713867200,366.3021850585937500,711.1279296875000000,6.6288552284240720,32.6165084838867200,48,3,391,405,65,2147602125,2148159227,2149657215,2148046290,1723,0,-12,50815
1341505488,6468,41.3300018310546900,7.2045998573303220,34.9384994506835940,366.7410888671875000,697.3522949218750000,7.0999112129211430,32.3545494079589840,66,3,438,542,66,2147818166,2148433590,2150383181,2148328146,1225,0,-12,27670
1341505551,6471,38.3899993896484400,7.7515001296997070,34.9707984924316400,367.1525878906250000,681.3319702148438000,7.6445617675781250,32.0594482421875000,99,3,571,743,65,2148166857,2148854284,2151418792,2148723652,612,0,-11,19581
1341505612,6504,35.9099998474121100,7.9145998954772950,34.9674987792968750,375.3894042968750000,675.3416748046875000,7.8473658561706540,31.7029705047607420,101,3,767,779,64,2148610216,2149373841,2152545677,2149148640,3502,0,-11,5404
1341505675,6468,33.4700012207031250,7.9313001632690430,34.9452018737793000,382.9205932617187500,673.0059204101562000,7.9263229370117190,31.4379806518554700,92,3,782,732,64,2149385864,2150259203,2154318353,2149827186,2314,0,-12,7744
1341505736,6469,31.0699996948242200,8.2941999435424800,34.9715003967285160,388.0155944824219000,662.9843750000000000,8.2643032073974610,31.1189002990722660,98,3,820,734,66,2150501878,2151510655,2156670180,2150745243,2106,0,-11,11311
1341505826,6506,26.5200004577636720,8.6335000991821290,34.9813995361328100,396.7991027832031000,653.1967163085938000,8.5932035446167000,30.7048301696777340,106,3,571,691,64,2154760118,2156109261,2164325773,2153934486,1076,0,-12,39536
1341505887,6471,22.5300006866455080,9.0782003402709960,34.9833984375000000,397.9710998535156000,638.0786743164062000,9.0989780426025390,30.4247703552246100,83,3,591,593,62,2160750299,2162373046,2173683460,2158092429,1275,1,-11,36568
1341505974,6504,17.8799991607666000,10.6021003723144530,34.9599990844726560,391.2524108886719000,599.0908203125000000,10.3913402557373050,29.9956207275390620,85,3,671,485,64,2171759268,2173979017,2188910930,2165144506,1030,0,-12,3913
1341506035,6469,16.7099990844726560,10.8573999404907230,34.9687004089355500,383.8581848144531000,589.3082275390625000,10.7130498886108400,30.0547599792480470,76,3,709,501,62,2173678628,2176008155,2191281183,2166299812,583,2,-11,62976
1341506182,6504,14.2399997711181640,10.9965000152587890,34.9830017089843750,374.2936096191406000,581.2401123046875000,10.9776401519775390,30.2094001770019530,80,3,607,519,61,2185563761,2188660602,2205537512,2173360891,3515,0,-12,48317
1341506261,6471,11.7399997711181640,11.1462001800537110,34.9813995361328100,372.0512084960937500,574.3983154296875000,11.2015104293823240,30.1712207794189450,83,3,452,554,61,2205312749,2209680064,2228520108,2185332479,3458,0,-10,51464
1341506335,6471,8.7899999618530270,11.8121995925903320,34.9866981506347660,360.2477111816406000,556.1328735351562000,11.7969398498535160,30.2510509490966800,76,3,301,501,58,2232271985,2238063793,2258292570,2202711350,2544,0,-9,14422
1341506405,6469,6.0199999809265140,11.9099998474121100,34.9903984069824200,354.6391906738281000,552.6052246093750000,11.9115896224975590,30.3715000152587900,76,3,214,483,62,2267625649,2274812091,2293683002,2228060406,2043,0,-15,64563
1341506464,6469,3.4000000953674316,11.9422998428344730,34.9910011291503900,352.6476135253906000,551.4824218750000000,11.9480495452880860,30.4168701171875000,72,3,165,448,57,2311391176,2320532603,2335471396,2270263615,2020,-22,-4,35146
1341506514,6469,20.0000000000000000,0.0000000000000000,0.0000000000000000,352.4133911132812500,551.0496826171875000,11.9620895385742190,30.4177207946777340,76,3,148,465,61,2335663309,2345791487,2358157860,2299096986,858,1,-24,54140
1341506542,6469,0.8999999761581421,0.0000000000000000,0.0000000000000000,352.3124084472656000,551.0932006835938000,11.9606800079345700,30.4214496612548830,76,3,139,466,58,2400742065,2418777860,2412135478,2375680516,1146,-1,-16,40856
